[Iaude] MPEC M119: 2020 MA3 [a=2.51,e=0.70,i=16.5,H=19.0,PHA]

mpec at marsden.cfa.harvard.edu mpec at marsden.cfa.harvard.edu
Sat Jun 27 18:30:39 EDT 2020


M.P.E.C. 2020-M119                                Issued 2020 June 27, 22:28 UT

     The Minor Planet Electronic Circulars contain information on unusual
         minor planets and routine data on comets.  They are published
    on behalf of Division F of the International Astronomical Union by the
          Minor Planet Center, Smithsonian Astrophysical Observatory,
                          Cambridge, MA 02138, U.S.A.

             Prepared using the Tamkin Foundation Computer Network

                              MPC at CFA.HARVARD.EDU
            URL https://www.minorplanetcenter.net/    ISSN 1523-6714

                                    2020 MA3                                    


Observations:
     K20M03A  C2020 05 16.32622915 36 51.762-12 25 29.73         22.79GVEM119F51
     K20M03A  C2020 05 16.33794315 36 50.767-12 25 28.64         22.26GVEM119F51
     K20M03A  C2020 05 16.34958715 36 49.716-12 25 27.60         22.74GVEM119F51
     K20M03A  C2020 05 16.36127015 36 48.655-12 25 26.72         22.12GVEM119F51
     K20M03A  C2020 06 10.30607314 59 56.853-12 06 02.72         22.76GVEM119F51
     K20M03A  C2020 06 10.31905614 59 55.742-12 06 02.94         22.82GVEM119F51
     K20M03A  C2020 06 10.33203714 59 54.650-12 06 02.96         22.50GVEM119F51
     K20M03A  C2020 06 10.34499714 59 53.559-12 06 03.49         22.50GVEM119F51
     K20M03A KC2020 06 16.32314514 52 10.404-12 09 26.84         22.23GVEM119F52
     K20M03A KC2020 06 21.30364614 46 27.032-12 15 34.78         22.03GVEM119F52
     K20M03A* C2020 06 24.28721914 43 22.543-12 20 48.31         22.48wUEM119F51
     K20M03A  C2020 06 24.29824414 43 21.885-12 20 49.48         22.29wUEM119F51
     K20M03A  C2020 06 24.30929514 43 21.216-12 20 50.69         22.14wUEM119F51
     K20M03A ^C2020 06 25.27413214 42 25.285-12 22 47.89         22.53GVEM119568
     K20M03A ^C2020 06 25.27531114 42 25.216-12 22 48.06         22.61GVEM119568
     K20M03A ^C2020 06 25.27649714 42 25.143-12 22 48.18         22.66GVEM119568
     K20M03A ^C2020 06 27.34433814 40 31.151-12 27 25.29         22.62GVEM119568
     K20M03A ^C2020 06 27.34551714 40 31.087-12 27 25.38         22.38GVEM119568
     K20M03A ^C2020 06 27.34677914 40 31.017-12 27 25.58         22.48GVEM119568

Observer details:
568 Mauna Kea.  Observers R. Wainscoat, L. Wells, T. Burdullis, S. Prunet.
    Measurers R. Weryk, R. Wainscoat.  3.6-m Canada-France-Hawaii Telescope +
    CCD.
F51 Pan-STARRS 1, Haleakala.  Observers J. Bulger, K. Chambers, T. Lowe, A.
    Schultz, M. Willman.  Measurers S. Chastel, M. Huber, Y. Ramanjooloo, R.
    Wainscoat, R. Weryk, K. Chambers, T. de Boer, L. Denneau, J. Fairlamb, H.
    Flewelling, C.-C. Lin, E. Magnier.  1.8-m Ritchey-Chretien + CCD.
F52 Pan-STARRS 2, Haleakala.  Observers J. Bulger, K. Chambers, T. Dukes, T.
    Lowe, A. Schultz, M. Willman.  Measurers S. Chastel, M. Huber, Y.
    Ramanjooloo, R. Wainscoat, R. Weryk.  1.8-m Ritchey-Chretien + CCD.

Orbital elements:
2020 MA3                                            PHA, Earth MOID = 0.0331 AU
Epoch 2020 May 31.0 TT = JDT 2459000.5                  Pan
M 309.60309              (2000.0)            P               Q
n   0.24782081     Peri.  302.63816     +0.94535355     -0.18777497
a   2.5102147      Node    69.40652     +0.29808317     +0.82899219
e   0.7018345      Incl.   16.54343     -0.13211011     +0.52679456
P   3.98           H   19.0           G   0.15           U   4
Residuals in seconds of arc
200516 F51  0.3-  0.1-    200610 F51  0.2-  0.2-    200625 568  0.0   0.0
200516 F51  0.4+  0.0     200616 F52  0.0   0.1-    200625 568  0.0   0.0
200516 F51  0.1+  0.1+    200621 F52  0.3+  0.3-    200627 568  0.0   0.0
200516 F51  0.2-  0.0     200624 F51  0.2-  0.1-    200627 568  0.0   0.1+
200610 F51  0.3+  0.0     200624 F51  0.0   0.0     200627 568  0.0   0.1+
200610 F51  0.0   0.0     200624 F51  0.2+  0.1+
200610 F51  0.1-  0.2+    200625 568  0.0   0.0

Ephemeris:
2020 MA3                 a,e,i = 2.51, 0.70, 17                  q = 0.7485
Date    TT    R. A. (2000) Decl.     Delta      r    Elong.  Phase     V
2020 05 28    15 19 20.1 -12 11 12   1.5658  2.5515   162.8     6.8    22.5
...
2020 06 12    14 57 40.5 -12 06 32   1.5403  2.4365   144.1    14.2    22.7
...
2020 06 20    14 47 52.8 -12 13 37   1.5492  2.3730   134.3    17.9    22.8
...
2020 06 26    14 41 44.4 -12 24 18   1.5638  2.3243   127.2    20.4    22.8
2020 06 27    14 40 49.7 -12 26 34   1.5668  2.3161   126.1    20.8    22.8
2020 06 28    14 39 57.0 -12 28 58   1.5699  2.3079   124.9    21.2    22.8
...
2020 07 04    14 35 23.7 -12 46 19   1.5912  2.2581   118.3    23.4    22.9
...
2020 07 12    14 31 15.8 -13 17 18   1.6248  2.1902   109.9    25.9    22.9
...
2020 07 27    14 29 30.0 -14 39 04   1.6942  2.0584    95.6    29.4    23.0

M. P. C. Staff               (C) Copyright 2020 MPC           M.P.E.C. 2020-M119




More information about the Iaude mailing list